[[{"header":{"parameterUnit":"m.s-1","parameterCategory":1,"la1":30.2991,"la2":30.254,"lo1":-89.0895,"lo2":-89.0444,"dy":0.0017,"dx":0.0017,"nx":28,"ny":28,"refTime":"2025-12-27T09:00:00:Z","depth":0,"parameterNumber":2,"parameterNumberName":"U-component_of_WINDS"},"data":[0,0,0,0,0,0,0,0,0,0,0,0,0,0,0,0,0,0,0,0,0,0,0,0,0,0,0,0,0,0,0,0,0,0,0,0,0,0,0,0,0,0,0,0,0,0,0,0,0,0,0,0,0,0,0,0,0,0,0.8201,0.8201,0,0.8153,0.8153,0.8152,0.8116,0.8115,0.8115,0.8115,0.8065,0.8064,0.8063,0,0,0,0,0,0,0,0,0,0,0,0,0,0.8259,0.8258,0.8201,0.8201,0.82,0.8153,0.8153,0.8152,0.8116,0.8115,0.8115,0.8114,0.8065,0.8064,0.8063,0,0,0,0,0,0,0,0,0,0,0,0,0,0.8225,0.8258,0.8201,0.8176,0.8173,0.8153,0.8153,0.8152,0.8116,0.8115,0.8115,0.8114,0.8066,0.8064,0.8063,0.8063,0,0,0.8058,0.8057,0,0,0,0,0,0,0,0,0.8227,0.8222,0.818,0.8178,0.8175,0.814,0.8155,0.8122,0.8116,0.8138,0.8115,0.8114,0.809,0.8087,0.8079,0.8061,0.8059,0.8058,0.8057,0.8056,0.8056,0,0,0,0,0,0,0,0.8229,0.8224,0.8182,0.818,0.8176,0.8166,0.8161,0.8148,0.8117,0.8136,0.8133,0.8128,0.8088,0.808,0.8077,0.8058,0.8058,0.8056,0.8056,0.8055,0.8035,0.8036,0,0,0,0,0,0,0.8235,0.8227,0.8184,0.8181,0.82,0.8166,0.816,0.8152,0.8117,0.8112,0.8128,0.8126,0.8083,0.8079,0.8075,0.8072,0.8056,0.8055,0.8054,0.8035,0.8036,0.8036,0,0,0,0,0,0,0.8237,0.8232,0.8186,0.8203,0.8196,0.8165,0.8156,0.8151,0.8143,0.8112,0.8106,0.8126,0.8083,0.8077,0.8066,0.807,0.8054,0.8053,0.8035,0.8035,0.8036,0.8067,0,0,0,0,0,0,0.8239,0.8233,0.8233,0.8203,0.8195,0.8178,0.8157,0.815,0.814,0.8137,0.8108,0.8102,0.8082,0.8068,0.8064,0.8068,0.8052,0.8034,0.8035,0.8036,0.8066,0.8069,0.8072,0,0,0,0,0,0.8241,0.8245,0.8234,0.8229,0.8196,0.8178,0.8174,0.815,0.8141,0.8141,0.812,0.8103,0.807,0.8068,0.8063,0.8066,0.8034,0.8035,0.8036,0.8064,0.8068,0.8071,0,0,0,0,0,0,0.8277,0.824,0.8228,0.8222,0.8204,0.8172,0.8172,0.8155,0.8139,0.8137,0.8108,0.8101,0.8093,0.8078,0.8076,0.8063,0.805,0.805,0.8073,0.8077,0.8079,0.8083,0.805,0,0,0,0,0,0.8284,0.8273,0.8242,0.824,0.8231,0.8203,0.8195,0.8178,0.8157,0.8149,0.8128,0.8108,0.8093,0.8084,0.8069,0.8063,0.8055,0.8062,0.8065,0.8068,0.8068,0.8062,0.8064,0.8039,0.8039,0.8039,0,0,0.8299,0.8277,0.8273,0.8246,0.823,0.8219,0.8197,0.8186,0.8177,0.8147,0.8135,0.8119,0.8095,0.8085,0.808,0.8073,0.8073,0.8069,0.8071,0.807,0.8063,0.8065,0.8068,0.8039,0.8039,0.8039,0,0,0.832,0.8303,0.8299,0.8283,0.8258,0.8239,0.8238,0.8208,0.8196,0.8183,0.816,0.8148,0.8123,0.8106,0.8095,0.8106,0.8089,0.8102,0.8117,0.8111,0.8113,0.8115,0.8118,0.8119,0.8102,0.8102,0.8103,0,0.8341,0.8324,0.8299,0.8289,0.8277,0.8249,0.8243,0.8229,0.82,0.8192,0.8184,0.815,0.8133,0.8118,0.8121,0.8112,0.8109,0.8106,0.8115,0.8117,0.8118,0.812,0.8121,0.8104,0.8104,0.8104,0.8104,0,0.8351,0.8339,0.8338,0.8311,0.8299,0.8292,0.8264,0.8254,0.8238,0.8219,0.8205,0.8182,0.816,0.8155,0.814,0.8138,0.8134,0.8121,0.8107,0.8122,0.8124,0.8125,0.8106,0.8106,0.8105,0.8105,0,0,0.8395,0.8352,0.8352,0.8338,0.8308,0.8298,0.8288,0.8267,0.8259,0.8239,0.8229,0.8207,0.8194,0.8181,0.8163,0.8158,0.8166,0.8145,0.8144,0.8149,0.8161,0.817,0.8172,0.8155,0.8155,0.8155,0.8162,0,0.8411,0.8392,0.8368,0.8357,0.8345,0.8317,0.8308,0.8287,0.8269,0.8255,0.8234,0.8219,0.8204,0.8195,0.8189,0.8167,0.8168,0.8166,0.8144,0.8143,0.8151,0.8173,0.8184,0.8192,0.8163,0.8163,0.8163,0,0.8427,0.8409,0.8397,0.8365,0.8359,0.8352,0.8329,0.8316,0.8292,0.8278,0.8262,0.8242,0.8228,0.8216,0.8196,0.8194,0.8184,0.8171,0.8171,0.8168,0.8154,0.817,0.8195,0.8196,0.8164,0.8164,0.8164,0,0.8459,0.8431,0.842,0.8409,0.8373,0.8368,0.8352,0.8327,0.8315,0.8294,0.8286,0.8264,0.8252,0.8235,0.8209,0.8202,0.8191,0.8177,0.8178,0.8179,0.8178,0.8178,0.82,0.8172,0.8172,0.8172,0.8172,0,0.8479,0.8473,0.8433,0.8427,0.8418,0.8389,0.838,0.8362,0.8339,0.8327,0.8301,0.829,0.8256,0.8241,0.822,0.8205,0.82,0.8188,0.8183,0.819,0.8192,0.8183,0.8182,0.8172,0.8172,0.8172,0.8172,0,0.8513,0.8487,0.8473,0.8439,0.843,0.8425,0.8395,0.8386,0.8365,0.835,0.8345,0.8312,0.8292,0.8264,0.8236,0.8221,0.8209,0.8201,0.8218,0.8215,0.8218,0.8218,0.8235,0.8235,0.8207,0.8207,0.8208,0,0.8528,0.8522,0.8487,0.8477,0.8462,0.8447,0.8434,0.8404,0.8392,0.8362,0.8356,0.8334,0.8315,0.8284,0.8257,0.8235,0.8225,0.8233,0.8222,0.8229,0.8224,0.8224,0.8223,0.8235,0.8236,0.8236,0.8237,0,0.8556,0.8542,0.8525,0.8503,0.8489,0.847,0.8449,0.8442,0.8408,0.8395,0.8374,0.8359,0.833,0.8307,0.8281,0.8263,0.8244,0.824,0.8239,0.8247,0.8257,0.825,0.8225,0.824,0.824,0.8239,0.8239,0.8239,0.8579,0.8572,0.8546,0.8527,0.8509,0.849,0.848,0.8457,0.844,0.8413,0.8396,0.8376,0.8349,0.8311,0.8294,0.8276,0.8269,0.8268,0.8267,0.8267,0.8269,0.8259,0.8272,0.8271,0.8271,0.8271,0.8271,0,0.8605,0.8586,0.857,0.8542,0.8526,0.8509,0.8485,0.8473,0.8456,0.8433,0.8414,0.8389,0.8366,0.8337,0.8312,0.8304,0.8294,0.8298,0.8298,0.8294,0.8278,0.8281,0.8306,0.8306,0.8306,0.8306,0.8306,0.8306,0.8617,0.8603,0.8587,0.8563,0.8544,0.8524,0.8511,0.8493,0.8474,0.8447,0.8429,0.841,0.8383,0.8356,0.8334,0.8325,0.8317,0.8324,0.8313,0.8299,0.8295,0.8292,0.8295,0.8322,0.8322,0.8329,0.833,0.833]},{"header":{"parameterUnit":"m.s-1","parameterCategory":1,"la1":30.2991,"la2":30.254,"lo1":-89.0895,"lo2":-89.0444,"dy":0.0017,"dx":0.0017,"nx":28,"ny":28,"refTime":"2025-12-27T09:00:00:Z","depth":0,"parameterNumber":3,"parameterNumberName":"V-component_of_WINDS"},"data":[0,0,0,0,0,0,0,0,0,0,0,0,0,0,0,0,0,0,0,0,0,0,0,0,0,0,0,0,0,0,0,0,0,0,0,0,0,0,0,0,0,0,0,0,0,0,0,0,0,0,0,0,0,0,0,0,0,0,2.2389,2.2388,0,2.2307,2.2306,2.2305,2.2277,2.2277,2.2278,2.2278,2.2191,2.2188,2.2185,0,0,0,0,0,0,0,0,0,0,0,0,0,2.2517,2.2515,2.2389,2.2388,2.2387,2.2307,2.2306,2.2305,2.2277,2.2277,2.2278,2.2278,2.2191,2.2188,2.2185,0,0,0,0,0,0,0,0,0,0,0,0,0,2.2451,2.2514,2.2389,2.2364,2.236,2.2307,2.2306,2.2305,2.2277,2.2277,2.2278,2.2278,2.2192,2.2189,2.2185,2.215,0,0,2.2173,2.2171,0,0,0,0,0,0,0,0,2.2455,2.2446,2.2368,2.2365,2.2362,2.2303,2.2319,2.2253,2.2277,2.2308,2.2278,2.2278,2.2227,2.222,2.2204,2.2146,2.2142,2.2172,2.217,2.2168,2.2167,0,0,0,0,0,0,0,2.2459,2.245,2.2357,2.2367,2.2363,2.2355,2.2346,2.2306,2.2266,2.2306,2.2303,2.2294,2.2225,2.2208,2.2202,2.2141,2.2172,2.2169,2.2166,2.2165,2.2049,2.2049,0,0,0,0,0,0,2.2469,2.2454,2.2359,2.2354,2.2411,2.2352,2.2342,2.2321,2.2266,2.2259,2.2294,2.2293,2.2214,2.2206,2.2198,2.2154,2.2168,2.2164,2.2162,2.205,2.2049,2.2049,0,0,0,0,0,0,2.2472,2.2461,2.2362,2.2403,2.239,2.2349,2.2326,2.2319,2.2302,2.2257,2.225,2.2284,2.2214,2.2204,2.2162,2.215,2.2163,2.2159,2.2051,2.205,2.2049,2.2065,0,0,0,0,0,0,2.2476,2.2462,2.245,2.2403,2.2388,2.2329,2.2325,2.2317,2.2295,2.2294,2.2246,2.2238,2.2214,2.2168,2.2158,2.2145,2.2156,2.2052,2.2051,2.2049,2.2065,2.2064,2.2064,0,0,0,0,0,2.248,2.2457,2.2449,2.2438,2.2372,2.2329,2.232,2.2293,2.2294,2.2281,2.2252,2.224,2.2153,2.2164,2.2153,2.2138,2.2052,2.2051,2.2049,2.2065,2.2065,2.2064,0,0,0,0,0,0,2.2502,2.245,2.2441,2.2402,2.237,2.2324,2.2306,2.2293,2.2259,2.2259,2.2226,2.2216,2.2176,2.2153,2.2166,2.2101,2.2102,2.2098,2.2118,2.2117,2.2116,2.2123,2.2153,0,0,0,0,0,2.2502,2.2473,2.2429,2.2399,2.2383,2.2347,2.2327,2.231,2.2275,2.226,2.2229,2.2194,2.2159,2.2137,2.2102,2.2061,2.205,2.2046,2.2045,2.2045,2.2042,2.2017,2.2015,2.2043,2.2043,2.2044,0,0,2.2503,2.2471,2.2454,2.2402,2.2375,2.2344,2.2336,2.2303,2.2279,2.2255,2.2214,2.219,2.2149,2.2107,2.2087,2.2087,2.2031,2.2043,2.2043,2.204,2.2015,2.2013,2.201,2.2042,2.2043,2.2043,0,0,2.2487,2.2461,2.2432,2.2405,2.2365,2.2341,2.2334,2.2289,2.2272,2.2231,2.2212,2.2182,2.2123,2.2094,2.2072,2.2044,2.2031,2.2033,2.203,2.2007,2.2004,2.2002,2.1992,2.1988,2.203,2.2031,2.2031,0,2.2492,2.2446,2.2419,2.2387,2.2364,2.2342,2.2312,2.2286,2.2236,2.222,2.222,2.2144,2.2115,2.2066,2.206,2.2042,2.2033,2.2039,2.2007,2.2005,2.2002,2.1992,2.1988,2.2031,2.2031,2.2031,2.2031,0,2.2454,2.2421,2.2403,2.2356,2.2331,2.2301,2.2268,2.2245,2.2229,2.2205,2.2162,2.2126,2.2084,2.2071,2.2055,2.2019,2.202,2.2014,2.2014,2.2,2.199,2.1986,2.2032,2.2032,2.2032,2.2031,0,0,2.245,2.2389,2.2382,2.236,2.2313,2.2287,2.2254,2.2214,2.2195,2.216,2.2131,2.2081,2.2075,2.205,2.203,2.201,2.1989,2.2006,2.2004,2.2004,2.1947,2.1951,2.1947,2.198,2.1979,2.1978,2.195,0,2.2429,2.2371,2.2346,2.2299,2.2268,2.2246,2.2217,2.2184,2.216,2.2129,2.2102,2.2067,2.2062,2.2047,2.2026,2.1996,2.1977,2.1998,2.1952,2.1951,2.1963,2.1942,2.1947,2.1922,2.1946,2.1945,2.1945,0,2.2396,2.2362,2.2313,2.2269,2.2255,2.223,2.219,2.2161,2.2123,2.2107,2.2078,2.2059,2.2022,2.2025,2.1974,2.1988,2.1968,2.195,2.1948,2.1943,2.1947,2.1936,2.1914,2.191,2.1938,2.1939,2.1939,0,2.2398,2.234,2.2303,2.2285,2.2233,2.2216,2.2193,2.2155,2.2132,2.2096,2.208,2.204,2.2018,2.1987,2.1958,2.1962,2.1909,2.1909,2.1894,2.1894,2.1883,2.1885,2.1857,2.1871,2.1871,2.1871,2.1871,0,2.2376,2.2347,2.2304,2.2281,2.2247,2.2216,2.2183,2.2158,2.2124,2.2095,2.2073,2.2045,2.2008,2.1975,2.1952,2.1912,2.1903,2.1888,2.1882,2.189,2.1892,2.1876,2.1877,2.187,2.187,2.187,2.187,0,2.2373,2.2343,2.2301,2.2255,2.2242,2.2219,2.2179,2.2155,2.213,2.2093,2.2083,2.2043,2.2003,2.197,2.1919,2.1902,2.1861,2.1854,2.1875,2.1872,2.1858,2.186,2.182,2.1812,2.1831,2.1831,2.1831,0,2.2362,2.2339,2.229,2.2269,2.2247,2.2214,2.219,2.2159,2.2135,2.2089,2.207,2.2029,2.1995,2.1933,2.1898,2.1858,2.185,2.1839,2.1844,2.1852,2.1849,2.1851,2.1848,2.1838,2.1838,2.1838,2.1838,0,2.2344,2.233,2.2297,2.2259,2.2231,2.2199,2.2166,2.215,2.2112,2.2086,2.2046,2.202,2.1967,2.1926,2.1882,2.1857,2.1841,2.1837,2.1831,2.1839,2.1852,2.1844,2.1873,2.1838,2.1838,2.1838,2.1838,2.1838,2.2336,2.2314,2.2276,2.224,2.2212,2.2182,2.2157,2.2129,2.2095,2.205,2.2033,2.1992,2.1953,2.1892,2.1867,2.1833,2.1831,2.1823,2.1821,2.1819,2.182,2.1857,2.1825,2.1825,2.1825,2.1825,2.1825,0,2.2317,2.2291,2.2258,2.2213,2.2185,2.2173,2.2135,2.2112,2.2076,2.2041,2.2008,2.1961,2.1921,2.1884,2.1842,2.1822,2.1813,2.1812,2.1813,2.1807,2.1825,2.1834,2.1819,2.1819,2.1819,2.1819,2.1819,2.1819,2.2304,2.2266,2.2247,2.2195,2.2169,2.2129,2.2108,2.208,2.2052,2.2001,2.1968,2.1944,2.1907,2.1862,2.1825,2.1815,2.18,2.18,2.1788,2.1805,2.1806,2.1807,2.1815,2.1798,2.1798,2.1774,2.1773,2.1773]}]]